| time (UTC) | temp F | wind direction | speed MPH | gust MPH | rain 1hr in | rain 24hr in | rain mn in | humidity % | barometer mb |
| 20260507074544 | 57 | 250 | 0.0 | 1.0 | 0.04 | 0.17 | 0.17 | 95 | 1015.8 |
| 20260507073035 | 57 | 250 | 0.0 | 1.0 | 0.04 | 0.15 | 0.15 | 94 | 1016.0 |
| 20260507071532 | 57 | 250 | 0.0 | 1.0 | 0.06 | 0.15 | 0.15 | 94 | 1015.7 |
| 20260507070030 | 56 | 250 | 0.0 | 1.0 | 0.10 | 0.14 | 0.14 | 94 | 1015.4 |
| 20260507064534 | 55 | 250 | 0.0 | 2.0 | 0.13 | 0.13 | 0.13 | 94 | 1015.4 |
| 20260507063031 | 55 | 250 | 0.0 | 1.0 | 0.11 | 0.11 | 0.11 | 94 | 1015.3 |
| 20260507061527 | 55 | 249 | 0.0 | 1.0 | 0.08 | 0.08 | 0.08 | 93 | 1015.3 |
| 20260507060029 | 55 | 249 | 0.0 | 2.0 | 0.04 | 0.04 | 0.04 | 93 | 1015.2 |
| 20260507054522 | 55 | 249 | 0.0 | 2.0 | 0.01 | 0.01 | 0.01 | 92 | 1014.9 |
| 20260507053021 | 55 | 249 | 0.0 | 2.0 | 0.00 | 0.00 | 0.00 | 92 | 1014.6 |
| 20260507051529 | 54 | 249 | 0.0 | 1.0 | 0.00 | 0.00 | 0.00 | 92 | 1014.5 |
| 20260507050018 | 55 | 249 | 0.0 | 1.0 | 0.00 | 0.00 | 0.00 | 93 | 1014.5 |
| 20260507044517 | 54 | 249 | 0.0 | 0.0 | 0.00 | 0.00 | 0.00 | 93 | 1014.1 |
| 20260507043015 | 54 | 249 | 0.0 | 1.0 | 0.00 | 0.00 | 0.00 | 93 | 1014.0 |
| 20260507041514 | 54 | 248 | 0.0 | 1.0 | 0.00 | 0.00 | 0.00 | 93 | 1014.0 |
| 20260507040013 | 53 | 248 | 1.0 | 2.0 | 0.00 | 0.00 | 0.00 | 93 | 1014.0 |
| 20260507034520 | 53 | 249 | 0.0 | 4.0 | 0.00 | 0.00 | 0.00 | 93 | 1013.9 |
| 20260507033013 | 53 | 207 | 0.0 | 3.0 | 0.00 | 0.00 | 0.00 | 93 | 1014.0 |
| 20260507031512 | 53 | 283 | 0.0 | 2.0 | 0.00 | 0.00 | 0.00 | 93 | 1014.0 |
| 20260507030017 | 53 | 283 | 0.0 | 1.0 | 0.00 | 0.00 | 0.00 | 92 | 1013.9 |
| 20260507024518 | 53 | 283 | 0.0 | 2.0 | 0.00 | 0.00 | 0.00 | 93 | 1013.7 |
| 20260507023010 | 53 | 275 | 0.0 | 2.0 | 0.00 | 0.00 | 0.00 | 93 | 1013.5 |
| 20260507021509 | 52 | 275 | 1.0 | 3.0 | 0.00 | 0.00 | 0.00 | 92 | 1013.6 |
| 20260507020009 | 53 | 252 | 0.0 | 0.0 | 0.00 | 0.00 | 0.00 | 92 | 1013.4 |
| 20260507014510 | 53 | 252 | 0.0 | 1.0 | 0.00 | 0.00 | 0.00 | 92 | 1013.5 |
| 20260507013007 | 53 | 252 | 0.0 | 2.0 | 0.00 | 0.00 | 0.00 | 92 | 1013.6 |
| 20260507011508 | 53 | 252 | 0.0 | 3.0 | 0.00 | 0.00 | 0.00 | 92 | 1013.3 |
| 20260507010010 | 53 | 257 | 0.0 | 0.0 | 0.00 | 0.00 | 0.00 | 92 | 1013.3 |
| 20260507004503 | 53 | 257 | 0.0 | 2.0 | 0.00 | 0.00 | 0.00 | 91 | 1013.3 |
| 20260507003001 | 53 | 257 | 1.0 | 3.0 | 0.00 | 0.00 | 0.00 | 91 | 1013.6 |
| 20260507001602 | 53 | 239 | 0.0 | 2.0 | 0.00 | 0.00 | 0.00 | 91 | 1013.7 |
| 20260507000105 | 53 | 332 | 0.0 | 2.0 | 0.00 | 0.00 | 0.00 | 91 | 1013.9 |
| 20260506234621 | 53 | 332 | 0.0 | 1.0 | 0.00 | 0.00 | 0.00 | 91 | 1013.7 |
| 20260506233104 | 54 | 332 | 0.0 | 2.0 | 0.00 | 0.00 | 0.00 | 90 | 1013.8 |
| 20260506231557 | 54 | 332 | 0.0 | 4.0 | 0.00 | 0.00 | 0.00 | 90 | 1013.9 |
| 20260506230054 | 54 | 165 | 2.0 | 3.0 | 0.00 | 0.00 | 0.00 | 90 | 1013.7 |
| 20260506224555 | 54 | 252 | 0.0 | 1.0 | 0.00 | 0.00 | 0.00 | 89 | 1013.9 |
| 20260506223057 | 55 | 252 | 0.0 | 2.0 | 0.00 | 0.00 | 0.00 | 88 | 1014.0 |
| 20260506221550 | 55 | 252 | 0.0 | 1.0 | 0.00 | 0.00 | 0.00 | 87 | 1013.9 |
| 20260506220050 | 56 | 252 | 1.0 | 2.0 | 0.00 | 0.00 | 0.00 | 85 | 1013.6 |
| 20260506214547 | 57 | 252 | 0.0 | 4.0 | 0.00 | 0.00 | 0.00 | 84 | 1013.5 |
| 20260506213044 | 57 | 261 | 0.0 | 4.0 | 0.00 | 0.00 | 0.00 | 83 | 1013.5 |
| 20260506211550 | 58 | 355 | 3.0 | 5.0 | 0.00 | 0.00 | 0.00 | 83 | 1013.2 |
| 20260506210043 | 58 | 240 | 2.0 | 8.0 | 0.00 | 0.00 | 0.00 | 85 | 1013.2 |
| 20260506204543 | 56 | 186 | 1.0 | 5.0 | 0.00 | 0.00 | 0.00 | 88 | 1013.0 |
| 20260506203042 | 56 | 188 | 2.0 | 3.0 | 0.00 | 0.00 | 0.00 | 87 | 1012.9 |
| 20260506201542 | 57 | 185 | 1.0 | 3.0 | 0.00 | 0.00 | 0.00 | 85 | 1012.8 |
| 20260506200041 | 58 | 182 | 0.0 | 3.0 | 0.00 | 0.00 | 0.00 | 84 | 1012.9 |
| 20260506194540 | 59 | 250 | 0.0 | 3.0 | 0.00 | 0.00 | 0.00 | 82 | 1013.0 |
| 20260506193039 | 61 | 276 | 2.0 | 5.0 | 0.00 | 0.00 | 0.00 | 80 | 1012.8 |
| 20260506191540 | 59 | 197 | 0.0 | 4.0 | 0.00 | 0.00 | 0.00 | 83 | 1012.6 |
| 20260506190038 | 59 | 236 | 0.0 | 3.0 | 0.00 | 0.00 | 0.00 | 85 | 1012.4 |
| 20260506184537 | 59 | 242 | 1.0 | 4.0 | 0.00 | 0.00 | 0.00 | 86 | 1012.1 |
| 20260506183037 | 60 | 257 | 0.0 | 1.0 | 0.00 | 0.00 | 0.00 | 84 | 1012.0 |
| 20260506181538 | 62 | 257 | 0.0 | 2.0 | 0.00 | 0.00 | 0.00 | 81 | 1012.0 |
| 20260506180036 | 63 | 257 | 0.0 | 2.0 | 0.00 | 0.00 | 0.00 | 79 | 1011.9 |
| 20260506174537 | 64 | 259 | 1.0 | 3.0 | 0.00 | 0.00 | 0.00 | 77 | 1011.9 |
| 20260506173035 | 65 | 263 | 1.0 | 4.0 | 0.00 | 0.00 | 0.00 | 74 | 1011.9 |
| 20260506171534 | 66 | 236 | 3.0 | 8.0 | 0.00 | 0.00 | 0.00 | 72 | 1011.9 |
| 20260506170033 | 67 | 258 | 4.0 | 7.0 | 0.00 | 0.00 | 0.00 | 70 | 1011.8 |
| 20260506164534 | 67 | 220 | 2.0 | 4.0 | 0.00 | 0.00 | 0.00 | 71 | 1011.7 |
| 20260506163034 | 67 | 255 | 1.0 | 6.0 | 0.00 | 0.00 | 0.00 | 71 | 1011.8 |
| 20260506161535 | 68 | 220 | 3.0 | 5.0 | 0.00 | 0.00 | 0.00 | 72 | 1011.8 |
| 20260506160030 | 68 | 209 | 2.0 | 6.0 | 0.00 | 0.00 | 0.00 | 71 | 1012.0 |
| 20260506154530 | 69 | 219 | 2.0 | 4.0 | 0.00 | 0.00 | 0.00 | 70 | 1012.2 |
| 20260506153040 | 68 | 227 | 3.0 | 7.0 | 0.00 | 0.00 | 0.00 | 68 | 1012.2 |
| 20260506151528 | 68 | 271 | 3.0 | 13.0 | 0.00 | 0.00 | 0.00 | 69 | 1012.2 |
| 20260506150028 | 69 | 207 | 2.0 | 10.0 | 0.00 | 0.00 | 0.00 | 68 | 1012.3 |
| 20260506144546 | 69 | 252 | 5.0 | 9.0 | 0.00 | 0.00 | 0.00 | 69 | 1012.2 |
| 20260506143026 | 71 | 49 | 1.0 | 12.0 | 0.00 | 0.00 | 0.00 | 68 | 1012.2 |
| 20260506141524 | 70 | 267 | 0.0 | 7.0 | 0.00 | 0.00 | 0.00 | 69 | 1012.5 |
| 20260506140035 | 67 | 236 | 2.0 | 8.0 | 0.00 | 0.00 | 0.00 | 71 | 1012.5 |
| 20260506134530 | 67 | 221 | 0.0 | 5.0 | 0.00 | 0.00 | 0.00 | 73 | 1012.4 |
| 20260506133022 | 67 | 232 | 2.0 | 5.0 | 0.00 | 0.00 | 0.00 | 72 | 1012.5 |
| 20260506131527 | 67 | 231 | 1.0 | 4.0 | 0.00 | 0.00 | 0.00 | 73 | 1012.6 |
| 20260506130018 | 67 | 257 | 3.0 | 7.0 | 0.00 | 0.00 | 0.00 | 72 | 1012.5 |
| 20260506124519 | 69 | 236 | 2.0 | 7.0 | 0.00 | 0.00 | 0.00 | 69 | 1012.5 |
| 20260506123028 | 69 | 256 | 2.0 | 6.0 | 0.00 | 0.00 | 0.00 | 68 | 1012.6 |
| 20260506121516 | 70 | 227 | 2.0 | 9.0 | 0.00 | 0.00 | 0.00 | 69 | 1012.6 |
| 20260506120024 | 69 | 240 | 2.0 | 9.0 | 0.00 | 0.00 | 0.00 | 69 | 1012.8 |
| 20260506114519 | 68 | 244 | 3.0 | 9.0 | 0.00 | 0.01 | 0.00 | 70 | 1012.9 |
| 20260506113012 | 67 | 244 | 4.0 | 9.0 | 0.00 | 0.01 | 0.00 | 71 | 1013.1 |
| 20260506111510 | 66 | 234 | 6.0 | 9.0 | 0.00 | 0.01 | 0.00 | 71 | 1013.3 |
| 20260506110010 | 65 | 248 | 3.0 | 7.0 | 0.00 | 0.01 | 0.00 | 72 | 1013.4 |
| 20260506104513 | 65 | 239 | 3.0 | 10.0 | 0.00 | 0.01 | 0.00 | 73 | 1013.5 |
| 20260506103010 | 66 | 288 | 4.0 | 13.0 | 0.00 | 0.01 | 0.00 | 70 | 1013.7 |
| 20260506101508 | 66 | 263 | 1.0 | 7.0 | 0.00 | 0.01 | 0.00 | 70 | 1013.9 |
| 20260506100016 | 64 | 258 | 2.0 | 8.0 | 0.00 | 0.01 | 0.00 | 71 | 1014.1 |
| 20260506094508 | 65 | 261 | 3.0 | 9.0 | 0.00 | 0.01 | 0.00 | 69 | 1014.2 |
| 20260506093007 | 65 | 246 | 3.0 | 7.0 | 0.00 | 0.01 | 0.00 | 71 | 1014.3 |
| 20260506091506 | 66 | 220 | 3.0 | 10.0 | 0.00 | 0.01 | 0.00 | 72 | 1014.3 |
| 20260506090005 | 67 | 256 | 2.0 | 9.0 | 0.00 | 0.01 | 0.00 | 68 | 1014.2 |
| 20260506084506 | 69 | 207 | 5.0 | 11.0 | 0.00 | 0.01 | 0.00 | 68 | 1013.9 |
| 20260506083006 | 70 | 257 | 6.0 | 10.0 | 0.00 | 0.01 | 0.00 | 66 | 1013.7 |
| 20260506081507 | 69 | 284 | 1.0 | 5.0 | 0.00 | 0.01 | 0.00 | 67 | 1013.4 |